Weather History for Weslaco, TX

Change the Weather History Date:

Monday, February 18, 2013

  Actual Average (KMFE) Record (KMFE)
Temperature  
Mean Temperature 76 °F 65 °F  
Max Temperature 85 °F 76 °F 93 °F (1982)
Min Temperature 66 °F 55 °F 34 °F (1917)
Degree Days  
Heating Degree Days 0 3  
Month to date heating degree days 79  
Since 1 July heating degree days 506  
Cooling Degree Days 10 4  
Month to date cooling degree days 54  
Year to date cooling degree days 116  
Growing Degree Days 26 (Base 50)    
Moisture  
Dew Point 60 °F    
Average Humidity 65    
Maximum Humidity 82    
Minimum Humidity 41    
Precipitation  
Precipitation 0.00 in 0.04 in 1.18 in (1973)
Month to date precipitation 0.78  
Year to date precipitation 1.83  
Sea Level Pressure  
Sea Level Pressure 29.91 in    
Wind  
Wind Speed 15 mph (SSE)    
Max Wind Speed 24 mph    
Max Gust Speed 34 mph    
Visibility 10 miles    
Events      
T = Trace of Precipitation, MM = Missing Value Source: NWS Daily Summary

Daily Weather History Graph

Daily Weather History Graph

Search for Another Location

Airport:

Trip Planner

Search our weather history database for the weather conditions in past years. The results will help you decide how hot, cold, wet, or windy it might be!

Date:

Astronomy

Feb. 18, 2013 Rise Set
Actual Time 7:04 AM CST 6:27 PM CST
Civil Twilight 6:41 AM CST 6:50 PM CST
Nautical Twilight 6:14 AM CST 7:17 PM CST
Astronomical Twilight 5:47 AM CST 7:44 PM CST
Moon 12:29 PM CST (2/18) 1:30 AM CST (2/18)
Length of Visible Light 12h 09m
Length of Day
11h 22m
First Quarter, 58% of the Moon is Illuminated
Feb 18
First Quarter
Feb 25
Full
Mar 4
Last Quarter
Mar 11
New
Mar 19
First Quarter

Hourly Weather History & Observations

Time (CST) Temp. Heat Index Dew Point Humidity Pressure Visibility Wind Dir Wind Speed Gust Speed Precip Events Conditions
12:15 AM 67.1 °F - 57.6 °F 71% 29.99 in 10.0 mi SSE 16.1 mph 24.2 mph N/A   Overcast
12:35 AM 67.1 °F - 57.9 °F 72% 29.99 in 10.0 mi SSE 16.1 mph 26.5 mph N/A   Overcast
12:55 AM 66.6 °F - 58.1 °F 74% 29.98 in 10.0 mi SSE 11.5 mph 18.4 mph N/A   Overcast
1:15 AM 66.9 °F - 58.3 °F 74% 29.97 in 10.0 mi SSE 10.4 mph 23.0 mph N/A   Overcast
1:35 AM 66.7 °F - 58.6 °F 75% 29.97 in 10.0 mi SSE 12.7 mph 21.9 mph N/A   Overcast
1:55 AM 67.1 °F - 58.6 °F 74% 29.97 in 10.0 mi South 10.4 mph 18.4 mph N/A   Overcast
2:15 AM 67.1 °F - 59.0 °F 75% 29.96 in 10.0 mi SSE 12.7 mph - N/A   Overcast
2:35 AM 67.1 °F - 59.0 °F 75% 29.95 in 10.0 mi SSE 12.7 mph 18.4 mph N/A   Overcast
2:55 AM 67.3 °F - 59.0 °F 75% 29.95 in 10.0 mi South 11.5 mph 16.1 mph N/A   Overcast
3:15 AM 67.6 °F - 59.0 °F 74% 29.93 in 10.0 mi South 12.7 mph 19.6 mph N/A   Overcast
3:35 AM 68.0 °F - 59.2 °F 73% 29.93 in 10.0 mi South 12.7 mph 18.4 mph N/A   Overcast
4:15 AM 67.5 °F - 60.1 °F 77% 29.92 in 10.0 mi South 16.1 mph 23.0 mph N/A   Overcast
4:55 AM 67.1 °F - 60.8 °F 80% 29.91 in 10.0 mi South 13.8 mph - N/A   Overcast
5:15 AM 67.1 °F - 60.8 °F 80% 29.91 in 10.0 mi South 15.0 mph 18.4 mph N/A   Overcast
5:35 AM 67.1 °F - 61.0 °F 81% 29.91 in 10.0 mi South 13.8 mph - N/A   Overcast
5:55 AM 67.1 °F - 61.2 °F 81% 29.91 in 10.0 mi South 16.1 mph 21.9 mph N/A   Overcast
6:15 AM 67.1 °F - 61.2 °F 81% 29.91 in 10.0 mi SSE 10.4 mph 17.3 mph N/A   Overcast
6:35 AM 67.3 °F - 61.2 °F 81% 29.90 in 10.0 mi SSE 13.8 mph 20.7 mph N/A   Overcast
6:55 AM 67.3 °F - 61.7 °F 82% 29.91 in 10.0 mi South 13.8 mph 19.6 mph N/A   Overcast
7:15 AM 67.5 °F - 61.7 °F 82% 29.91 in 10.0 mi South 12.7 mph 17.3 mph N/A   Overcast
7:35 AM 67.5 °F - 61.7 °F 82% 29.91 in 10.0 mi South 16.1 mph 21.9 mph N/A   Overcast
7:55 AM 68.4 °F - 61.9 °F 80% 29.92 in 10.0 mi South 13.8 mph 19.6 mph N/A   Mostly Cloudy
8:15 AM 68.4 °F - 61.9 °F 80% 29.92 in 10.0 mi South 12.7 mph 24.2 mph N/A   Mostly Cloudy
8:35 AM 69.8 °F - 61.9 °F 76% 29.92 in 10.0 mi South 16.1 mph 24.2 mph N/A   Mostly Cloudy
8:55 AM 70.5 °F - 62.1 °F 74% 29.93 in 10.0 mi South 15.0 mph 24.2 mph N/A   Mostly Cloudy
9:15 AM 72.9 °F - 62.1 °F 69% 29.93 in 10.0 mi South 20.7 mph 28.8 mph N/A   Mostly Cloudy
9:35 AM 72.9 °F - 62.1 °F 69% 29.95 in 10.0 mi South 23.0 mph 32.2 mph N/A   Overcast
9:55 AM 75.7 °F - 62.1 °F 62% 29.94 in 7.0 mi South 17.3 mph 33.4 mph N/A   Overcast
10:15 AM 76.1 °F - 62.1 °F 62% 29.93 in 10.0 mi South 18.4 mph 29.9 mph N/A   Overcast
10:35 AM 76.5 °F - 61.7 °F 60% 29.93 in 10.0 mi South 20.7 mph 34.5 mph N/A   Overcast
10:55 AM 77.4 °F - 61.0 °F 57% 29.93 in 10.0 mi South 24.2 mph 33.4 mph N/A   Overcast
11:15 AM 78.8 °F - 60.8 °F 54% 29.93 in 10.0 mi South 23.0 mph 33.4 mph N/A   Overcast
11:55 AM 80.4 °F 81.3 °F 61.0 °F 51% 29.91 in 10.0 mi South 21.9 mph 31.1 mph N/A   Mostly Cloudy
12:35 PM 82.9 °F 83.2 °F 60.3 °F 46% 29.90 in 7.0 mi South 24.2 mph 31.1 mph N/A   Overcast
12:55 PM 82.0 °F 82.4 °F 60.3 °F 47% 29.89 in 10.0 mi South 21.9 mph 28.8 mph N/A   Mostly Cloudy
1:15 PM 83.3 °F 83.2 °F 59.5 °F 44% 29.88 in 10.0 mi South 24.2 mph 32.2 mph N/A   Scattered Clouds
1:35 PM 85.1 °F 84.8 °F 59.4 °F 42% 29.87 in 7.0 mi South 20.7 mph 26.5 mph N/A   Scattered Clouds
1:55 PM 85.5 °F 85.0 °F 59.5 °F 41% 29.87 in 7.0 mi South 19.6 mph 26.5 mph N/A   Scattered Clouds
2:15 PM 84.4 °F 84.6 °F 60.8 °F 45% 29.85 in 10.0 mi SSE 19.6 mph 26.5 mph N/A   Scattered Clouds
2:35 PM 84.4 °F 84.4 °F 60.4 °F 44% 29.85 in 10.0 mi SSE 20.7 mph 25.3 mph N/A   Scattered Clouds
2:55 PM 84.6 °F 84.4 °F 60.1 °F 43% 29.85 in 7.0 mi SSE 19.6 mph 27.6 mph N/A   Clear
3:15 PM 85.1 °F 84.8 °F 59.9 °F 42% 29.84 in 10.0 mi SSE 15.0 mph 24.2 mph N/A   Clear
3:35 PM 84.2 °F 84.2 °F 59.9 °F 44% 29.84 in 7.0 mi SSE 19.6 mph 24.2 mph N/A   Clear
3:55 PM 82.8 °F 82.8 °F 59.7 °F 45% 29.84 in 10.0 mi SSE 20.7 mph 28.8 mph N/A   Clear
4:15 PM 82.2 °F 82.4 °F 59.5 °F 46% 29.83 in 10.0 mi SE 16.1 mph 25.3 mph N/A   Clear
4:35 PM 82.0 °F 82.2 °F 59.4 °F 46% 29.84 in 10.0 mi SSE 16.1 mph 23.0 mph N/A   Clear
4:55 PM 81.0 °F 81.3 °F 59.2 °F 47% 29.84 in 10.0 mi SSE 15.0 mph 24.2 mph N/A   Clear
5:15 PM 80.1 °F 80.8 °F 59.4 °F 49% 29.85 in 10.0 mi SSE 17.3 mph 24.2 mph N/A   Clear
5:35 PM 79.0 °F - 59.4 °F 51% 29.85 in 10.0 mi SSE 12.7 mph 26.5 mph N/A   Clear
5:55 PM 77.4 °F - 59.9 °F 55% 29.86 in 10.0 mi SSE 18.4 mph 27.6 mph N/A   Clear
6:15 PM 76.1 °F - 60.1 °F 57% 29.88 in 10.0 mi SSE 17.3 mph 26.5 mph N/A   Clear
6:35 PM 74.7 °F - 60.4 °F 61% 29.88 in 10.0 mi SSE 16.1 mph 19.6 mph N/A   Clear
6:55 PM 73.6 °F - 60.8 °F 64% 29.89 in 10.0 mi SSE 19.6 mph 26.5 mph N/A   Clear
7:15 PM 72.9 °F - 60.4 °F 65% 29.91 in 10.0 mi SSE 12.7 mph 21.9 mph N/A   Clear
7:35 PM 72.3 °F - 60.3 °F 66% 29.92 in 10.0 mi SSE 13.8 mph 20.7 mph N/A   Clear
8:15 PM 71.6 °F - 60.6 °F 68% 29.94 in 10.0 mi SSE 11.5 mph 18.4 mph N/A   Clear
8:35 PM 70.9 °F - 60.8 °F 70% 29.95 in 10.0 mi SSE 11.5 mph 17.3 mph N/A   Clear
8:55 PM 70.7 °F - 60.8 °F 71% 29.96 in 10.0 mi SSE 8.1 mph - N/A   Clear
9:15 PM 70.0 °F - 61.0 °F 73% 29.96 in 10.0 mi SSE 9.2 mph - N/A   Clear
9:35 PM 69.3 °F - 61.0 °F 75% 29.97 in 10.0 mi SSE 6.9 mph - N/A   Clear
9:55 PM 68.9 °F - 61.0 °F 76% 29.97 in 10.0 mi South 9.2 mph - N/A   Clear
10:15 PM 68.9 °F - 61.3 °F 77% 29.98 in 10.0 mi South 8.1 mph - N/A   Clear
10:35 PM 68.4 °F - 61.3 °F 78% 29.98 in 10.0 mi SSE 6.9 mph - N/A   Clear
10:55 PM 68.0 °F - 61.2 °F 79% 29.98 in 10.0 mi South 9.2 mph - N/A   Clear